TimeEST,TemperatureF,Dew PointF,Humidity,Sea Level PressureIn,VisibilityMPH,Wind Direction,Wind SpeedMPH,Gust SpeedMPH,PrecipitationIn,Events,Conditions,WindDirDegrees,DateUTC
12:02 AM,24.8,19.4,80,30.09,2.5,WNW,6.9,-,0.00,Snow,Light Snow,300,2013-02-03 05:02:00
12:11 AM,24.8,19.4,80,30.09,3.0,WNW,6.9,-,0.00,Snow,Light Snow,300,2013-02-03 05:11:00
12:20 AM,24.8,19.4,80,30.08,3.0,WNW,4.6,-,0.00,Snow,Light Snow,300,2013-02-03 05:20:00
12:53 AM,25.0,19.9,81,30.06,4.0,NW,6.9,-,0.00,Snow,Light Snow,320,2013-02-03 05:53:00
1:53 AM,25.0,19.9,81,30.05,4.0,WSW,3.5,-,0.00,Snow,Light Snow,250,2013-02-03 06:53:00
2:08 AM,24.8,19.4,80,30.04,2.5,WSW,4.6,-,0.00,Snow,Light Snow,250,2013-02-03 07:08:00
2:38 AM,24.8,19.4,80,30.03,3.0,WSW,4.6,-,0.00,Snow,Light Snow,250,2013-02-03 07:38:00
2:53 AM,24.1,19.9,84,30.03,4.0,Calm,Calm,-,0.00,Snow,Light Snow,0,2013-02-03 07:53:00
3:50 AM,21.2,17.6,86,30.00,6.0,Calm,Calm,-,0.00,,Mostly Cloudy,0,2013-02-03 08:50:00
3:53 AM,21.9,18.0,85,30.00,6.0,Calm,Calm,-,0.00,,Mostly Cloudy,0,2013-02-03 08:53:00
4:04 AM,19.4,17.6,93,30.00,7.0,Calm,Calm,-,N/A,,Scattered Clouds,0,2013-02-03 09:04:00
4:53 AM,19.0,15.1,85,29.98,8.0,Calm,Calm,-,N/A,,Overcast,0,2013-02-03 09:53:00
5:53 AM,19.0,15.1,85,29.96,10.0,Calm,Calm,-,N/A,,Mostly Cloudy,0,2013-02-03 10:53:00
6:53 AM,23.0,19.0,85,29.99,10.0,Calm,Calm,-,N/A,,Overcast,0,2013-02-03 11:53:00
7:33 AM,24.8,19.4,80,29.99,10.0,Calm,Calm,-,N/A,,Overcast,0,2013-02-03 12:33:00
7:53 AM,21.9,19.0,89,29.98,10.0,Calm,Calm,-,N/A,,Overcast,0,2013-02-03 12:53:00
8:53 AM,27.0,21.0,78,29.97,10.0,ENE,3.5,-,N/A,,Scattered Clouds,60,2013-02-03 13:53:00
9:53 AM,30.0,19.0,64,29.94,10.0,NE,8.1,-,N/A,,Scattered Clouds,40,2013-02-03 14:53:00
10:53 AM,30.0,18.0,61,29.91,10.0,North,5.8,-,N/A,,Overcast,360,2013-02-03 15:53:00
11:53 AM,32.0,18.0,56,29.87,10.0,North,6.9,-,N/A,,Clear,10,2013-02-03 16:53:00
12:53 PM,30.9,19.9,64,29.84,10.0,North,8.1,-,N/A,,Partly Cloudy,350,2013-02-03 17:53:00
1:27 PM,30.2,19.4,64,29.82,10.0,NNE,6.9,-,N/A,,Mostly Cloudy,20,2013-02-03 18:27:00
1:34 PM,30.2,19.4,64,29.82,10.0,North,9.2,-,N/A,,Scattered Clouds,360,2013-02-03 18:34:00
1:53 PM,30.9,18.0,59,29.81,10.0,NNW,6.9,-,N/A,,Clear,340,2013-02-03 18:53:00
2:53 PM,30.9,14.0,50,29.80,10.0,North,6.9,-,N/A,,Clear,350,2013-02-03 19:53:00
3:53 PM,30.9,14.0,50,29.78,10.0,NW,12.7,-,N/A,,Clear,320,2013-02-03 20:53:00
4:53 PM,28.0,16.0,61,29.78,10.0,WNW,5.8,-,N/A,,Clear,290,2013-02-03 21:53:00
5:53 PM,26.1,15.1,63,29.79,10.0,West,3.5,-,N/A,,Mostly Cloudy,280,2013-02-03 22:53:00
6:53 PM,24.1,15.1,69,29.80,10.0,West,3.5,-,N/A,,Mostly Cloudy,260,2013-02-03 23:53:00
7:53 PM,24.1,14.0,65,29.80,10.0,West,3.5,-,N/A,,Clear,270,2013-02-04 00:53:00
8:53 PM,19.9,12.9,74,29.81,10.0,West,3.5,-,N/A,,Clear,270,2013-02-04 01:53:00
9:53 PM,21.9,14.0,72,29.81,10.0,West,8.1,-,N/A,,Clear,270,2013-02-04 02:53:00
10:53 PM,21.9,14.0,72,29.81,10.0,West,5.8,-,N/A,,Clear,270,2013-02-04 03:53:00
11:53 PM,17.1,10.9,77,29.81,10.0,Calm,Calm,-,N/A,,Clear,0,2013-02-04 04:53:00